Regional Weather Roundup
Issued by NWS Newport/Morehead, NC

Current Version | Previous Version | Graphics & Text | Print | Product List | Glossary Off
Versions: 1 2 3 4 5 6 7 8 9 10 11 12 13 14 15 16 17 18 19 20 21 22 23 24 25 26 27 28 29 30 31 32 33 34 35 36 37 38 39 40 41 42 43 44 45 46 47 48 49 50

154
ASUS42 KMHX 190125
RWRMHX
WEATHER ROUNDUP FOR EASTERN NORTH CAROLINA
NATIONAL WEATHER SERVICE NEWPORT/MOREHEAD CITY NC
900 PM EDT FRI AUG 18 2017

NOTE: "FAIR" INDICATES FEW OR NO CLOUDS BELOW 12,000 FEET
WITH NO SIGNIFICANT WEATHER AND/OR OBSTRUCTIONS TO VISIBILITY

NCZ015>017-031-032-045>047-102-103-190200-
NORTH COAST

CITY           SKY/WX    TMP DP  RH WIND       PRES   REMARKS
EDENTON        CLEAR     84  80  86 S8        29.87R
ELIZABETH CITY CLEAR     83  80  91 S8        29.87R
KITTY HAWK     CLOUDY    82  79  89 S8        29.88R
MANTEO         PTCLDY    83  80  90 SW16      29.90R

$$

NCZ045>047-081-094-103-104-190200-
CENTRAL COAST

CITY           SKY/WX    TMP DP  RH WIND       PRES   REMARKS
FRISCO         PTCLDY    85  82  91 SW16G24   29.90R HX 102

$$

NCZ095-097-098-100-101-190200-
SOUTHERN COAST

CITY           SKY/WX    TMP DP  RH WIND       PRES   REMARKS
BEAUFORT       CLEAR     84  82  94 SW18G25   29.90R HX 100
CEDAR ISLAND   NOT AVBL
JACKSONVILLE   CLEAR     83  80  91 SW8       29.88S
PINEY ISLAND   CLEAR    N/A N/A N/A S13       29.89R
WILMINGTON     CLEAR     84  78  82 SW12      29.90S


$$

NCZ011>013-027>030-043-044-078>080-089-090>093-098-190200-
COASTAL PLAIN

CITY           SKY/WX    TMP DP  RH WIND       PRES   REMARKS
AHOSKIE          N/A     79  78  96 S3        29.85R
CLINTON        CLEAR     85  80  84 S6        29.88S
ELIZABETHTOWN  NOT AVBL
GOLDSBORO      CLEAR     86  80  81 S7        29.85S HX 102
GREENVILLE     CLEAR     86  79  79 SW9       29.88R
HAVELOCK       CLEAR     84  79  85 SW13      29.89S
KENANSVILLE    CLEAR     84  77  79 SW5       29.88S
KINSTON        NOT AVBL
NEW BERN       CLEAR     83  79  88 S9        29.89R
RICHLANDS      CLEAR     83  79  88 S12       29.89S
ROCKY MOUNT    CLEAR     85  75  72 S8        29.84S
WASHINGTON     CLEAR     83  78  83 S8        29.87R
WHITEVILLE     CLEAR     83  78  83 S7        29.90S

$$

AMZ130-135-150-152-154-156-158-170-250-252-270-ANZ085-086-088-633-658-670-190200-
MARINE OBSERVATIONS

STATION/POSITION TIME  TEMP    WIND        PRES    WAVE   SWELL
                       AIR SEA DIR/SP/G            HT/PER HT/PER
                 (UTC) (F)     (DEG/KT/KT) (MB)    (FT/S) (FT/S)
CHESAPEAKE LIGHT NOT AVBL
64 E VA BEACH    0050   80 78  210/ 16/ 17 1012.0    4/ 4   2/ 9
DUCK             0100   83 73  190/ 14/ 17 1011.0
2 E DUCK         0100      78                N/A     2/ 4
OREGON INLET     0100   83 80  190/ 21/ 24 1012.1
13E OREGON INLT  0048      81                N/A     3/ 4   2/10
HATTERAS CG      0100   84 84  210/ 12/ 18 1012.5
DIAMOND BUOY     0050   85 85  210/ 19/ 23 1012.4    4/ 5   2/ 8
CAPE LOOKOUT     0100   84     210/ 11/ 14 1012.4
BEAUFORT LAB     0100   84 82  210/ 11/ 18 1011.9
30 SE NEW RVR IN 0108   82 84  220/ 17/ 23 1012.9
30 SE NEW RVR IN 0043      84                N/A     4/ 5
27 SE WRIGHTSVLE 0108   84 84  200/ 17/ 25 1012.9
5 SE WRIGHTSVLE  0108   84 85  210/ 12/ 21 1012.8
225 S CAPE HAT   0050   84 85  210/ 14/ 16 1016.3    3/ 5   2/ 8
41 SE CHARLESTON 0110   84 85  200/ 16/ 19 1013.7

$$




USA.gov is the U.S. government's official web portal to all federal, state and local government web resources and services.